Terug naar catalogus

KUIPER-00144

ActiefCommunicatieLEO
NORAD 67133·PAYLOAD·🇺🇸 United States

Gelanceerd Dec 15, 2025 vanaf Cape Canaveral Space Force Station

Loading…

Volgende Passages (komende 24 uur)

TLE

VersSource: CelesTrak SupGP

Epoch: Sep 15, 2026, 04:03 UTC

1 67133C 25301A   26258.16921296 -.00020315  00000+0 -26597-2 0  2581
2 67133  51.9005 297.7483 0000608  63.6932 173.5098 14.79946379    18

Volg KUIPER-00144 in realtime met AllMySat

Download on the App Store